When you browse on this site, cookies collect data to enhance your experience and personalize the content and advertising you see.
Visit our Privacy Policy to learn more. By continuing to use the site, you agree to this use of cookies and data.
EN

Hourly Weather Lankaran

Today, 3 August, Monday

Time Temperature Precipitation Wind Pressure Humidity
00:00 +15°C° 0 mm 0 mps 629 mmHg 85%
01:00 +15°C° 0 mm 0 mps 629 mmHg 86%
02:00 +16°C° 0 mm 1 mps 629 mmHg 87%
03:00 +16°C° 0 mm 1 mps 630 mmHg 89%
04:00 +16°C° 0.1 mm 1 mps 630 mmHg 89%
05:00 +16°C° 0.1 mm 1 mps 630 mmHg 90%
06:00 +16°C° 0.1 mm 1 mps 631 mmHg 90%
07:00 +17°C° 0.4 mm 2 mps 631 mmHg 89%
08:00 +17°C° 0.4 mm 2 mps 632 mmHg 88%
09:00 +17°C° 0 mm 3 mps 632 mmHg 86%
10:00 +18°C° 0.3 mm 3 mps 632 mmHg 86%
11:00 +18°C° 0.3 mm 3 mps 632 mmHg 86%
12:00 +18°C° 0.3 mm 3 mps 632 mmHg 85%
13:00 +17°C° 0.5 mm 4 mps 632 mmHg 86%
14:00 +17°C° 0.5 mm 4 mps 632 mmHg 87%
15:00 +16°C° 0.5 mm 5 mps 632 mmHg 87%
16:00 +15°C° 0.8 mm 4 mps 632 mmHg 88%
17:00 +15°C° 0.8 mm 4 mps 632 mmHg 89%
18:00 +14°C° 0.8 mm 4 mps 632 mmHg 90%
19:00 +14°C° 0.2 mm 4 mps 632 mmHg 91%
20:00 +13°C° 0.2 mm 3 mps 633 mmHg 92%
21:00 +13°C° 0.2 mm 3 mps 633 mmHg 93%
22:00 +13°C° 0.2 mm 3 mps 633 mmHg 93%
23:00 +13°C° 0.2 mm 3 mps 633 mmHg 93%

Tomorrow, 4 August, Tuesday

Time Temperature Precipitation Wind Pressure Humidity
00:00 +13°C° 0.2 mm 3 mps 633 mmHg 93%
01:00 +13°C° 0.1 mm 3 mps 633 mmHg 93%
02:00 +12°C° 0.1 mm 3 mps 633 mmHg 92%
03:00 +12°C° 0.1 mm 3 mps 633 mmHg 92%
04:00 +12°C° 0 mm 3 mps 633 mmHg 89%
05:00 +12°C° 0 mm 3 mps 633 mmHg 86%
06:00 +12°C° 0 mm 3 mps 633 mmHg 84%
07:00 +13°C° 0 mm 3 mps 633 mmHg 77%
08:00 +14°C° 0 mm 3 mps 634 mmHg 70%
09:00 +15°C° 0 mm 4 mps 635 mmHg 63%
10:00 +17°C° 0 mm 4 mps 635 mmHg 58%
11:00 +17°C° 0 mm 5 mps 635 mmHg 53%
12:00 +19°C° 0 mm 5 mps 635 mmHg 48%
13:00 +19°C° 0 mm 5 mps 634 mmHg 48%
14:00 +19°C° 0 mm 5 mps 634 mmHg 47%
15:00 +19°C° 0 mm 5 mps 634 mmHg 47%
16:00 +18°C° 0 mm 4 mps 633 mmHg 53%
17:00 +16°C° 0 mm 3 mps 633 mmHg 58%
18:00 +14°C° 0 mm 3 mps 632 mmHg 63%
19:00 +14°C° 0 mm 2 mps 632 mmHg 68%
20:00 +13°C° 0 mm 2 mps 632 mmHg 72%
21:00 +12°C° 0 mm 2 mps 632 mmHg 76%
22:00 +12°C° 0 mm 1 mps 632 mmHg 75%
23:00 +12°C° 0 mm 1 mps 631 mmHg 73%

Day after tomorrow, 5 August, Wednesday

Time Temperature Precipitation Wind Pressure Humidity
00:00 +12°C° 0 mm 1 mps 631 mmHg 72%
01:00 +12°C° 0 mm 1 mps 631 mmHg 71%
02:00 +12°C° 0 mm 1 mps 631 mmHg 71%
03:00 +12°C° 0 mm 1 mps 630 mmHg 70%
04:00 +12°C° 0.2 mm 1 mps 630 mmHg 70%
05:00 +13°C° 0.2 mm 1 mps 630 mmHg 69%
06:00 +13°C° 0.2 mm 1 mps 631 mmHg 69%
07:00 +14°C° 0.1 mm 1 mps 631 mmHg 67%
08:00 +15°C° 0.1 mm 2 mps 631 mmHg 66%
09:00 +16°C° 0.1 mm 2 mps 632 mmHg 65%
10:00 +17°C° 0 mm 3 mps 632 mmHg 63%
11:00 +18°C° 0 mm 3 mps 632 mmHg 61%
12:00 +19°C° 0 mm 3 mps 632 mmHg 59%
13:00 +18°C° 0 mm 3 mps 631 mmHg 61%
14:00 +18°C° 0 mm 3 mps 631 mmHg 63%
15:00 +18°C° 0 mm 3 mps 631 mmHg 66%
16:00 +17°C° 0 mm 3 mps 631 mmHg 70%
17:00 +16°C° 0 mm 3 mps 631 mmHg 74%
18:00 +16°C° 0 mm 2 mps 630 mmHg 78%
19:00 +15°C° 0 mm 2 mps 631 mmHg 81%
20:00 +14°C° 0 mm 1 mps 631 mmHg 83%
21:00 +14°C° 0 mm 1 mps 631 mmHg 86%
22:00 +14°C° 0 mm 1 mps 631 mmHg 86%
23:00 +13°C° 0 mm 1 mps 631 mmHg 86%

6 August, Thursday

Time Temperature Precipitation Wind Pressure Humidity
00:00 +13°C° 0 mm 1 mps 631 mmHg 87%
01:00 +13°C° 0 mm 1 mps 631 mmHg 87%
02:00 +13°C° 0 mm 1 mps 631 mmHg 87%
03:00 +12°C° 0 mm 0 mps 630 mmHg 87%
04:00 +12°C° 0 mm 0 mps 631 mmHg 85%
05:00 +13°C° 0 mm 0 mps 631 mmHg 83%
06:00 +13°C° 0 mm 0 mps 632 mmHg 81%
07:00 +15°C° 0 mm 1 mps 632 mmHg 77%
08:00 +18°C° 0 mm 1 mps 633 mmHg 73%
09:00 +18°C° 0 mm 2 mps 633 mmHg 69%
10:00 +19°C° 0.1 mm 2 mps 633 mmHg 68%
11:00 +19°C° 0.1 mm 3 mps 634 mmHg 67%
12:00 +20°C° 0.1 mm 3 mps 634 mmHg 65%
13:00 +20°C° 0.1 mm 3 mps 633 mmHg 67%
14:00 +19°C° 0.1 mm 4 mps 633 mmHg 69%
15:00 +19°C° 0.1 mm 4 mps 633 mmHg 71%
16:00 +18°C° 0 mm 3 mps 633 mmHg 73%
17:00 +18°C° 0 mm 3 mps 633 mmHg 76%
18:00 +17°C° 0 mm 3 mps 633 mmHg 78%
19:00 +16°C° 0 mm 2 mps 633 mmHg 82%
20:00 +15°C° 0 mm 1 mps 633 mmHg 85%
21:00 +14°C° 0 mm 1 mps 633 mmHg 89%
22:00 +14°C° 0 mm 1 mps 633 mmHg 87%
23:00 +14°C° 0 mm 1 mps 632 mmHg 86%

7 August, Friday

Time Temperature Precipitation Wind Pressure Humidity
00:00 +13°C° 0 mm 0 mps 632 mmHg 85%
01:00 +13°C° 0 mm 0 mps 632 mmHg 84%
02:00 +13°C° 0 mm 1 mps 632 mmHg 83%
03:00 +13°C° 0 mm 1 mps 632 mmHg 82%
04:00 +13°C° 0 mm 0 mps 632 mmHg 79%
05:00 +14°C° 0 mm 0 mps 633 mmHg 76%
06:00 +14°C° 0 mm 0 mps 633 mmHg 72%
07:00 +18°C° 0 mm 1 mps 634 mmHg 67%
08:00 +19°C° 0 mm 1 mps 634 mmHg 61%
09:00 +20°C° 0 mm 2 mps 635 mmHg 55%
10:00 +21°C° 0 mm 3 mps 635 mmHg 54%
11:00 +22°C° 0 mm 3 mps 635 mmHg 53%
12:00 +22°C° 0 mm 4 mps 635 mmHg 52%
13:00 +22°C° 0 mm 4 mps 635 mmHg 54%
14:00 +22°C° 0 mm 4 mps 634 mmHg 56%
15:00 +22°C° 0 mm 4 mps 634 mmHg 58%
16:00 +20°C° 0 mm 4 mps 633 mmHg 64%
17:00 +19°C° 0 mm 3 mps 633 mmHg 70%
18:00 +18°C° 0 mm 3 mps 632 mmHg 76%
19:00 +17°C° 0 mm 2 mps 632 mmHg 79%
20:00 +16°C° 0 mm 2 mps 632 mmHg 83%
21:00 +15°C° 0 mm 1 mps 632 mmHg 86%
22:00 +15°C° 0 mm 1 mps 632 mmHg 86%
23:00 +15°C° 0 mm 1 mps 632 mmHg 86%

8 August, Saturday

Time Temperature Precipitation Wind Pressure Humidity
00:00 +15°C° 0 mm 1 mps 632 mmHg 86%
01:00 +14°C° 0 mm 0 mps 632 mmHg 85%
02:00 +14°C° 0 mm 0 mps 631 mmHg 84%
03:00 +14°C° 0 mm 0 mps 631 mmHg 84%
04:00 +14°C° 0 mm 0 mps 631 mmHg 80%
05:00 +15°C° 0 mm 0 mps 632 mmHg 77%
06:00 +15°C° 0 mm 0 mps 632 mmHg 73%
07:00 +19°C° 0 mm 1 mps 632 mmHg 66%
08:00 +20°C° 0 mm 2 mps 633 mmHg 59%
09:00 +21°C° 0 mm 2 mps 633 mmHg 53%
10:00 +22°C° 0 mm 3 mps 633 mmHg 51%
11:00 +24°C° 0 mm 3 mps 633 mmHg 50%
12:00 +25°C° 0 mm 4 mps 633 mmHg 49%
13:00 +25°C° 0 mm 4 mps 633 mmHg 52%
14:00 +23°C° 0 mm 4 mps 632 mmHg 55%
15:00 +23°C° 0 mm 4 mps 631 mmHg 59%
16:00 +22°C° 0 mm 4 mps 631 mmHg 66%
17:00 +21°C° 0 mm 3 mps 631 mmHg 73%
18:00 +19°C° 0 mm 3 mps 630 mmHg 81%
19:00 +19°C° 0 mm 2 mps 630 mmHg 84%
20:00 +18°C° 0 mm 2 mps 630 mmHg 87%
21:00 +18°C° 0 mm 1 mps 630 mmHg 90%
22:00 +18°C° 0 mm 1 mps 630 mmHg 90%
23:00 +16°C° 0 mm 1 mps 630 mmHg 90%
Show more